VE3GSI Weather Reports


time (UTC)temp
C
wind
direction
speed
KPH
gust
KPH
rain 1hr
cm
rain 24hr
cm
rain mn
cm
humidity
%
barometer
mb
20260510104606 7 251 4.8 12.9 0.00 0.23 0.00 76 1008.4
20260510102605 6 253 3.2 9.7 0.00 0.23 0.00 77 1007.9
20260510101605 6 247 4.8 12.9 0.00 0.23 0.00 77 1007.8
20260510100605 6 269 3.2 9.7 0.00 0.23 0.00 75 1007.6
20260510095606 6 266 6.4 14.5 0.00 0.23 0.00 74 1007.4
20260510094606 6 255 6.4 12.9 0.00 0.23 0.00 74 1007.3
20260510093605 7 254 3.2 11.3 0.00 0.23 0.00 73 1007.2
20260510092605 7 260 4.8 11.3 0.00 0.23 0.00 73 1007.1
20260510091605 7 284 6.4 11.3 0.00 0.23 0.00 70 1006.7
20260510085606 8 276 11.3 19.3 0.00 0.23 0.00 68 1006.4
20260510084605 8 250 6.4 16.1 0.00 0.23 0.00 68 1006.3
20260510083606 8 277 4.8 16.1 0.00 0.23 0.00 69 1006.3
20260510082605 8 258 4.8 20.9 0.00 0.23 0.00 69 1006.2
20260510081605 8 298 6.4 14.5 0.00 0.23 0.00 68 1006.3
20260510075605 8 248 9.7 20.9 0.00 0.23 0.00 69 1006.0
20260510074606 8 255 6.4 19.3 0.00 0.23 0.00 71 1005.8
20260510073605 8 262 9.7 19.3 0.00 0.23 0.00 73 1005.7
20260510072606 8 244 4.8 14.5 0.00 0.23 0.00 77 1005.6
20260510071606 8 253 8.0 12.9 0.00 0.23 0.00 79 1005.5
20260510065606 8 260 3.2 8.0 0.00 0.23 0.00 87 1005.5
20260510063605 8 257 4.8 14.5 0.00 0.23 0.00 89 1005.4
20260510062606 8 259 4.8 9.7 0.00 0.23 0.00 91 1005.2
20260510060605 8 258 6.4 19.3 0.00 0.23 0.00 98 1005.1
20260510055606 7 265 3.2 8.0 0.00 0.23 0.00 98 1005.1
20260510054605 6 236 4.8 9.7 0.00 0.23 0.00 96 1005.1
20260510053605 6 215 1.6 3.2 0.00 0.23 0.00 96 1004.7
20260510052605 7 215 0.0 3.2 0.00 0.23 0.00 95 1004.4
20260510050606 7 215 1.6 4.8 0.00 0.23 0.00 96 1004.4
20260510045605 8 215 0.0 1.6 0.00 0.23 0.00 96 1004.2
20260510043605 8 214 1.6 3.2 0.00 0.23 0.00 96 1004.2
20260510042605 8 214 1.6 3.2 0.00 0.23 0.00 96 1003.9
20260510041606 8 213 3.2 4.8 0.00 0.23 0.00 96 1003.9
20260510034605 9 218 3.2 8.0 0.00 0.23 0.23 96 1003.5
20260510033605 9 220 3.2 8.0 0.00 0.23 0.23 95 1003.5
20260510032605 9 226 3.2 4.8 0.00 0.23 0.23 95 1003.2
20260510031605 10 254 3.2 8.0 0.00 0.23 0.23 95 1003.1
20260510030605 10 240 4.8 9.7 0.00 0.23 0.23 94 1003.1
20260510025605 10 236 4.8 9.7 0.03 0.23 0.23 95 1003.2
20260510023605 10 194 6.4 12.9 0.03 0.23 0.23 94 1003.0
20260510021605 11 215 8.0 19.3 0.03 0.23 0.23 94 1003.1
20260510020605 11 228 8.0 19.3 0.03 0.23 0.23 94 1002.9
20260510015605 11 231 6.4 16.1 0.00 0.23 0.23 94 1002.7
20260510014605 11 223 9.7 25.7 0.00 0.23 0.23 93 1002.7
20260510013605 11 200 11.3 19.3 0.03 0.23 0.23 93 1002.5
20260510012605 12 195 9.7 20.9 0.13 0.23 0.23 93 1002.6
20260510011606 12 198 8.0 19.3 0.18 0.23 0.23 93 1002.6
20260510010605 12 203 6.4 11.3 0.23 0.23 0.23 92 1002.3
20260510005605 12 214 3.2 12.9 0.23 0.23 0.23 92 1002.1
20260510004605 12 197 6.4 11.3 0.23 0.23 0.23 90 1001.9
20260510002605 13 207 8.0 19.3 0.10 0.10 0.10 86 1002.2
20260510001605 13 260 9.7 16.1 0.05 0.05 0.05 82 1001.8
20260510000605 14 196 3.2 8.0 0.00 0.00 0.00 78 1001.2
20260509235605 14 111 3.2 11.3 0.00 0.00 0.00 77 1000.9
20260509234605 14 139 4.8 11.3 0.00 0.00 0.00 76 1000.9
20260509232605 14 147 4.8 16.1 0.00 0.00 0.00 76 1001.0
20260509231605 15 116 9.7 14.5 0.00 0.00 0.00 75 1000.8
20260509230605 15 134 8.0 19.3 0.00 0.00 0.00 75 1001.0
20260509225604 15 126 8.0 19.3 0.00 0.00 0.00 74 1001.2
20260509224605 15 111 8.0 19.3 0.00 0.00 0.00 73 1001.6
20260509223608 15 131 4.8 9.7 0.00 0.00 0.00 72 1002.2
20260509222605 15 191 3.2 12.9 0.00 0.00 0.00 71 1002.5
20260509221605 15 155 9.7 20.9 0.00 0.00 0.00 69 1002.3
20260509220606 16 173 9.7 19.3 0.00 0.00 0.00 69 1002.2
20260509215605 16 180 11.3 29.0 0.00 0.00 0.00 69 1002.2
20260509214605 16 187 12.9 19.3 0.00 0.00 0.00 69 1002.0
20260509213605 16 183 6.4 20.9 0.00 0.00 0.00 67 1001.9
20260509212605 16 149 9.7 19.3 0.00 0.00 0.00 66 1002.2
20260509211605 16 149 8.0 22.5 0.00 0.00 0.00 66 1002.1
20260509210605 16 141 9.7 24.1 0.00 0.00 0.00 65 1001.9
20260509205605 17 146 11.3 19.3 0.00 0.00 0.00 63 1002.0
20260509204606 17 151 11.3 19.3 0.00 0.00 0.00 62 1002.1
20260509203605 17 135 9.7 24.1 0.00 0.00 0.00 60 1001.9
20260509202605 17 133 9.7 25.7 0.00 0.00 0.00 63 1002.2
20260509201605 17 155 9.7 29.0 0.00 0.00 0.00 61 1002.3
20260509200604 18 134 11.3 25.7 0.00 0.00 0.00 59 1002.4
20260509194605 18 186 16.1 25.7 0.00 0.00 0.00 56 1002.6
20260509192606 17 180 12.9 32.2 0.00 0.00 0.00 60 1002.8
20260509191605 17 200 11.3 24.1 0.00 0.00 0.00 60 1003.0
20260509190605 17 180 12.9 25.7 0.00 0.00 0.00 58 1003.2
20260509185605 17 169 11.3 25.7 0.00 0.00 0.00 58 1003.3
20260509184606 18 206 9.7 32.2 0.00 0.00 0.00 55 1003.4
20260509183605 18 158 11.3 22.5 0.00 0.00 0.00 54 1003.5
20260509182605 18 199 8.0 25.7 0.00 0.00 0.00 55 1003.4
20260509181605 18 118 11.3 20.9 0.00 0.00 0.00 53 1003.7
20260509180604 18 136 6.4 24.1 0.00 0.00 0.00 54 1003.6
20260509175605 18 120 9.7 25.7 0.00 0.00 0.00 50 1003.9
20260509174605 17 120 16.1 32.2 0.00 0.00 0.00 51 1003.9
20260509172605 17 181 9.7 25.7 0.00 0.00 0.00 53 1004.3
20260509171605 17 119 9.7 27.4 0.00 0.00 0.00 51 1004.4
20260509165605 17 134 16.1 29.0 0.00 0.00 0.00 45 1004.3
20260509164605 17 164 11.3 25.7 0.00 0.00 0.00 47 1004.3
20260509162604 17 141 11.3 35.4 0.00 0.00 0.00 52 1004.8
20260509161604 17 197 12.9 29.0 0.00 0.00 0.00 50 1004.9
20260509160605 17 112 14.5 22.5 0.00 0.00 0.00 51 1005.0
20260509155605 17 181 14.5 25.7 0.00 0.00 0.00 53 1005.2
20260509154605 17 190 11.3 22.5 0.00 0.00 0.00 54 1005.4
20260509153605 17 138 9.7 20.9 0.00 0.00 0.00 52 1005.5
20260509151605 15 127 11.3 32.2 0.00 0.00 0.00 57 1005.9
20260509150604 15 126 11.3 24.1 0.00 0.00 0.00 57 1005.9
20260509145606 15 136 11.3 25.7 0.00 0.00 0.00 56 1006.2
20260509144605 15 160 8.0 20.9 0.00 0.00 0.00 60 1006.2
20260509143605 14 98 9.7 20.9 0.00 0.00 0.00 60 1006.2
20260509142604 15 103 11.3 24.1 0.00 0.00 0.00 60 1006.4
20260509135605 14 187 9.7 19.3 0.00 0.00 0.00 61 1006.5
20260509134604 14 149 4.8 16.1 0.00 0.00 0.00 60 1006.5
20260509133605 13 149 11.3 20.9 0.00 0.00 0.00 60 1006.6
20260509132604 13 166 8.0 20.9 0.00 0.00 0.00 62 1006.7
20260509131604 13 156 11.3 19.3 0.00 0.00 0.00 63 1006.9
20260509130604 12 177 3.2 19.3 0.00 0.00 0.00 69 1006.9
20260509125605 11 359 9.7 14.5 0.00 0.00 0.00 72 1006.9
20260509124604 10 359 3.2 11.3 0.00 0.00 0.00 78 1006.8
20260509123604 9 359 4.8 12.9 0.00 0.00 0.00 75 1006.9
20260509122606 8 359 1.6 9.7 0.00 0.00 0.00 78 1006.9
20260509121605 8 359 1.6 9.7 0.00 0.00 0.00 82 1007.0
20260509120604 7 359 1.6 4.8 0.00 0.00 0.00 86 1007.2
20260509115604 6 359 1.6 4.8 0.00 0.00 0.00 93 1007.2
20260509114605 5 359 0.0 3.2 0.00 0.00 0.00 94 1007.3
20260509113605 3 359 0.0 0.0 0.00 0.00 0.00 97 1007.2
20260509112605 2 359 0.0 0.0 0.00 0.00 0.00 96 1007.3
20260509111604 2 359 0.0 0.0 0.00 0.00 0.00 93 1007.2
20260509105605 1 222 0.0 0.0 0.00 0.00 0.00 93 1007.2